Wind_Speed
11 10 10 10 10 9 9 10 10 11 11 11 11 12 11 11 10 9 8 9 8 8 8 8 7 6 7 7 8 8 9 9 9 9 9 10 10 11 11 11 12 12 12
11 11 11 10 10 10 10 10 10 10 11 11 11 11 11 11 11 11 10 10 9 9 9 9 8 7 7 7 7 9 9 10 10 10 10 11 11 11 12 12 12 12 13
11 11 11 10 10 11 10 10 10 10 10 10 11 11 11 11 11 11 11 11 11 10 10 10 10 9 9 9 9 9 10 11 11 11 11 12 12 12 12 13 13 13 13
10 10 10 10 10 11 11 11 10 9 10 11 11 11 12 12 12 12 12 12 12 12 11 11 11 10 10 10 9 10 10 11 12 12 12 12 12 12 13 13 14 14 14
10 9 9 10 10 10 11 11 12 11 12 12 12 12 12 12 12 12 13 13 13 13 12 11 12 11 11 11 11 11 11 11 11 12 12 12 13 13 13 13 14 14 15
10 9 9 9 10 10 11 11 12 12 12 12 13 12 12 12 13 13 13 14 14 14 15 14 13 13 12 12 12 12 11 11 12 12 12 13 13 13 14 14 14 15 15
10 10 10 10 10 10 11 11 12 12 12 13 13 13 12 12 13 14 14 15 15 15 16 15 14 14 13 13 13 13 13 13 12 12 13 13 13 14 15 15 15 16 17
10 11 10 10 11 10 11 10 11 12 12 12 12 13 13 13 13 14 15 15 16 16 16 16 15 15 15 14 13 13 13 13 13 13 13 13 14 14 15 16 16 17 18
10 10 10 10 11 11 10 10 10 11 12 12 12 13 13 13 13 14 15 16 16 17 17 16 16 16 16 15 14 14 14 14 15 14 14 14 15 15 16 17 17 18 19
10 10 10 10 11 11 10 10 10 10 11 12 12 13 14 14 14 14 15 16 17 17 17 16 16 16 16 16 15 15 15 15 15 15 15 15 16 16 17 18 18 19 20
10 9 10 10 11 11 10 10 10 10 11 12 12 13 14 14 15 15 16 16 16 16 16 17 17 17 17 17 17 16 16 16 16 16 16 17 17 17 17 18 20 19 20
10 10 10 10 11 11 10 10 10 11 11 12 12 13 13 14 14 14 15 15 16 16 16 17 17 17 17 17 17 17 17 17 17 18 18 18 17 17 18 18 20 20 20
9 9 9 10 10 10 10 10 11 11 11 11 12 12 12 13 13 13 14 15 16 15 15 16 17 17 17 17 18 18 18 18 18 18 19 19 18 18 19 19 20 21 21
8 7 8 9 9 10 10 11 11 11 11 11 12 12 13 12 12 13 13 14 14 14 15 15 17 17 18 18 18 19 19 19 19 19 19 19 20 19 20 20 20 20 21
7 7 7 8 9 9 10 10 11 11 11 11 12 12 13 12 12 12 13 13 13 14 14 15 15 17 18 18 19 19 19 19 19 19 20 20 22 22 21 21 21 21 21
6 7 7 7 8 8 9 9 10 10 10 11 12 12 12 11 11 12 12 13 13 14 14 15 15 16 17 17 18 18 18 19 19 19 20 21 21 22 22 22 22 22 22
6 6 6 6 7 7 8 9 9 9 10 11 11 11 12 12 11 11 11 12 14 14 14 15 16 16 16 16 17 18 18 19 19 20 20 20 20 21 22 22 23 23 22
8 8 7 6 6 6 7 8 8 8 8 9 10 11 10 11 11 10 11 12 13 14 14 14 15 16 16 17 18 18 18 19 20 20 21 20 21 21 22 22 22 22 22
9 9 8 7 7 7 7 7 8 8 7 7 8 9 11 11 11 11 11 11 12 12 12 13 14 14 15 16 17 18 18 18 19 20 21 21 21 22 22 22 22 22 22
10 10 9 8 8 8 8 8 7 7 7 7 8 9 10 10 10 10 10 11 12 12 13 13 14 14 15 16 16 17 18 19 19 20 21 21 21 21 21 21 22 23 24
11 10 9 9 9 9 8 8 8 8 7 8 9 9 9 10 11 11 11 12 12 13 14 14 15 15 16 17 17 18 18 19 19 20 21 21 22 22 22 22 23 23 24
11 11 11 10 10 10 10 10 10 10 9 9 10 10 11 11 12 12 13 14 14 15 15 15 15 16 16 17 18 18 19 19 20 21 21 22 23 23 23 24 24 24 23
12 12 12 12 12 11 12 12 12 12 12 12 12 12 12 13 14 14 15 16 16 16 16 16 17 18 18 18 19 19 20 20 20 21 21 22 23 23 24 23 23 23 23
15 14 14 14 14 13 13 13 13 14 14 14 14 14 15 15 15 15 16 16 16 17 17 17 18 18 19 19 20 20 20 20 21 21 21 22 22 23 24 24 24 24 24
16 16 16 16 16 15 15 16 15 15 15 15 15 16 16 16 17 17 17 16 16 17 18 18 19 19 19 20 21 21 20 20 20 21 21 22 22 22 23 24 24 24 24
17 18 17 17 17 17 17 17 17 17 17 17 17 17 17 18 18 18 18 17 17 18 18 19 20 20 20 20 21 21 21 21 21 21 22 22 22 22 22 23 23 23 24
Wind_Direction
281 276 272 269 262 261 258 254 253 252 249 242 234 235 237 233 232 236 236 238 241 243 243 238 236 230 227 235 236 236 234 239 243 244 248 251 254 256 253 254 256 255 253
283 278 272 266 259 258 259 256 251 250 247 240 234 233 233 231 233 235 240 244 246 241 240 238 237 237 235 228 232 235 238 243 244 245 249 253 256 258 258 257 255 257 254
282 275 268 260 255 256 257 258 255 253 244 239 237 235 233 234 233 235 241 247 249 243 242 242 242 242 237 233 237 244 244 246 247 249 251 252 256 259 260 260 259 257 255
281 280 272 259 255 257 258 258 252 252 243 243 242 238 237 237 234 237 240 242 246 247 243 241 245 240 237 238 242 249 248 249 249 251 254 256 257 258 260 260 260 257 257
281 278 274 264 259 259 258 255 253 250 248 244 241 240 242 238 239 241 241 242 245 246 244 244 244 241 240 241 244 246 250 251 254 257 260 261 260 259 260 261 263 259 257
281 279 273 267 266 263 259 257 254 253 250 248 247 248 247 245 243 242 243 242 243 244 245 248 247 245 240 241 246 246 250 255 255 260 263 263 263 263 262 261 261 259 258
281 278 270 265 266 268 262 260 257 254 253 252 251 251 249 246 243 242 243 242 243 244 246 249 252 251 249 251 252 251 254 262 259 258 261 262 263 265 264 263 263 260 261
282 279 274 266 265 266 265 260 256 253 253 252 252 253 252 247 246 247 245 244 245 246 247 247 247 249 252 254 255 254 256 260 264 263 263 265 266 266 266 264 263 263 265
283 282 273 265 266 267 266 258 255 252 250 251 253 252 250 251 250 247 246 247 249 248 247 244 245 249 253 256 257 258 263 265 265 266 265 266 267 268 266 266 266 266 266
279 278 272 267 264 268 266 262 257 255 253 253 254 253 253 251 251 249 248 249 249 248 248 247 248 250 251 254 259 262 260 262 264 265 266 269 270 268 268 266 268 268 267
279 277 272 263 259 263 265 263 259 256 257 258 257 256 257 255 254 254 254 252 249 249 250 248 249 250 252 253 260 265 265 265 265 268 269 271 270 272 273 269 268 268 269
284 280 273 263 258 257 261 263 262 260 261 260 259 260 262 259 257 258 257 255 254 253 251 251 250 252 255 256 262 266 269 271 270 270 269 272 272 272 273 272 271 272 272
283 280 273 266 260 254 259 263 265 267 263 258 257 257 261 261 261 264 262 258 256 255 254 252 252 254 257 260 264 268 273 273 273 272 270 271 272 273 272 273 274 272 271
284 283 275 268 265 259 260 263 265 268 262 260 257 258 260 261 262 265 263 258 255 255 256 256 258 258 258 262 265 269 271 271 274 274 274 274 274 275 274 275 275 272 269
283 283 280 276 272 265 264 268 266 266 264 261 260 260 260 262 262 264 264 259 255 255 257 259 263 265 264 263 264 267 269 271 273 276 275 274 275 277 276 275 273 270 269
285 288 280 279 277 269 267 269 269 267 266 264 262 260 263 265 264 263 264 260 255 257 261 263 266 268 267 264 265 270 269 270 272 277 277 276 276 277 276 275 273 270 269
284 289 289 291 282 276 269 265 266 268 266 263 262 264 266 266 269 270 268 262 259 260 263 265 268 269 270 268 269 272 273 274 277 279 278 277 277 277 277 276 274 271 271
279 283 284 287 286 283 279 271 269 272 272 262 263 265 269 270 266 267 266 264 261 261 264 268 269 268 270 271 273 272 275 278 278 279 278 277 278 278 278 278 276 274 272
274 277 279 275 278 279 279 280 280 275 273 273 268 264 267 270 267 268 269 267 264 267 270 272 273 274 275 277 278 277 280 283 284 280 279 278 279 278 278 278 277 275 274
272 273 277 274 272 273 275 277 279 276 272 272 273 272 270 270 270 272 272 271 271 271 272 274 275 278 279 280 280 281 281 282 283 283 283 282 281 280 278 278 277 276 275
270 270 273 277 273 271 271 270 271 275 276 272 269 273 274 274 275 277 277 277 278 278 277 277 279 281 282 282 282 285 285 284 283 283 284 283 283 282 280 280 280 278 276
271 269 271 276 273 270 268 268 271 272 271 270 271 274 276 274 274 276 277 278 282 283 282 282 285 287 288 287 286 287 289 287 286 285 286 286 286 284 283 283 282 280 279
270 268 267 269 271 271 268 270 269 269 268 271 274 276 277 277 276 279 279 279 281 283 282 284 286 287 289 290 289 289 290 289 288 286 287 287 286 284 283 282 279 279 280
267 269 268 267 269 270 269 269 267 265 266 270 274 275 278 280 279 280 282 282 281 282 282 283 286 288 289 290 290 290 291 290 290 288 289 288 286 284 283 282 281 280 282
266 268 269 269 268 267 268 267 266 266 267 270 274 276 278 280 280 282 282 282 283 284 283 284 286 288 289 290 291 290 290 290 289 288 288 288 288 287 286 284 283 283 282
265 267 268 269 268 268 266 266 265 267 268 270 274 276 276 278 281 283 283 281 282 284 286 286 287 288 289 291 290 288 288 289 289 288 288 289 289 288 287 287 286 285 283
Height
5866 5865 5865 5865 5864 5864 5864 5864 5864 5865 5865 5865 5865 5866 5867 5868 5868 5869 5870 5870 5870 5871 5871 5872 5872 5872 5872 5873 5873 5873 5873 5874 5874 5874 5874 5874 5874 5874 5874 5874 5874 5874 5874
5863 5862 5862 5861 5861 5861 5861 5861 5861 5862 5862 5862 5863 5863 5864 5865 5866 5867 5868 5868 5868 5869 5869 5870 5870 5870 5870 5870 5871 5871 5871 5871 5872 5872 5872 5872 5872 5872 5871 5871 5871 5871 5871
5859 5859 5858 5858 5858 5858 5858 5859 5859 5859 5859 5860 5861 5861 5862 5863 5864 5865 5865 5866 5866 5866 5867 5867 5867 5868 5868 5868 5868 5869 5869 5869 5869 5869 5869 5869 5869 5869 5868 5869 5868 5868 5868
5856 5856 5855 5855 5855 5856 5856 5856 5856 5856 5857 5858 5858 5859 5860 5860 5861 5862 5862 5863 5863 5864 5864 5864 5865 5865 5865 5866 5866 5866 5866 5866 5866 5866 5865 5865 5865 5865 5865 5865 5865 5865 5865
5853 5853 5853 5853 5853 5853 5853 5853 5853 5854 5854 5855 5855 5856 5857 5857 5858 5858 5859 5860 5861 5861 5861 5862 5862 5862 5862 5863 5863 5863 5863 5863 5863 5862 5862 5862 5862 5862 5862 5862 5862 5861 5862
5850 5850 5850 5850 5850 5850 5850 5850 5850 5851 5851 5852 5852 5853 5854 5854 5854 5855 5856 5857 5857 5858 5858 5859 5859 5859 5859 5859 5860 5860 5860 5860 5860 5859 5859 5858 5858 5858 5858 5858 5858 5858 5858
5848 5847 5847 5847 5847 5847 5846 5846 5847 5847 5848 5848 5849 5849 5850 5850 5851 5851 5852 5853 5854 5854 5855 5855 5856 5856 5856 5856 5856 5857 5857 5857 5856 5856 5855 5855 5854 5854 5854 5854 5854 5854 5854
5844 5844 5844 5843 5843 5843 5843 5843 5843 5844 5844 5845 5845 5845 5846 5847 5847 5848 5849 5850 5850 5851 5851 5852 5852 5852 5853 5853 5853 5852 5853 5853 5852 5852 5852 5851 5851 5850 5850 5850 5850 5849 5849
5841 5840 5840 5840 5840 5840 5840 5840 5840 5840 5841 5841 5842 5842 5842 5843 5843 5844 5845 5845 5846 5846 5847 5848 5848 5849 5849 5849 5849 5849 5850 5849 5849 5848 5848 5847 5847 5846 5846 5845 5845 5845 5844
5838 5838 5837 5837 5837 5837 5837 5837 5837 5837 5837 5838 5838 5838 5839 5839 5840 5841 5841 5841 5842 5842 5843 5844 5845 5845 5846 5846 5846 5846 5846 5845 5845 5844 5844 5843 5842 5841 5841 5841 5840 5840 5839
5835 5835 5834 5834 5834 5834 5834 5834 5834 5834 5834 5834 5835 5835 5835 5835 5836 5836 5837 5837 5838 5838 5839 5839 5841 5841 5842 5842 5842 5842 5842 5841 5841 5840 5839 5838 5837 5837 5836 5836 5835 5834 5834
5832 5832 5831 5831 5831 5831 5831 5831 5831 5831 5831 5831 5831 5831 5831 5831 5832 5832 5833 5833 5833 5834 5835 5835 5836 5837 5837 5838 5838 5838 5837 5837 5836 5835 5834 5833 5833 5832 5831 5830 5830 5829 5828
5830 5829 5828 5828 5828 5828 5828 5828 5828 5828 5827 5827 5827 5828 5828 5828 5828 5828 5829 5829 5829 5830 5830 5831 5832 5832 5833 5833 5833 5833 5832 5832 5831 5830 5829 5829 5828 5827 5826 5825 5824 5823 5822
5827 5826 5826 5825 5825 5825 5825 5825 5825 5825 5824 5824 5824 5824 5824 5824 5824 5824 5825 5825 5826 5826 5826 5827 5827 5827 5828 5828 5828 5828 5827 5826 5826 5825 5824 5823 5823 5822 5821 5820 5819 5818 5817
5825 5824 5824 5823 5823 5823 5823 5822 5822 5822 5821 5821 5821 5821 5821 5821 5821 5821 5821 5821 5822 5822 5823 5823 5823 5823 5823 5823 5823 5822 5822 5821 5821 5820 5819 5818 5817 5816 5815 5814 5813 5812 5812
5823 5822 5822 5821 5821 5820 5820 5819 5819 5819 5818 5818 5818 5818 5818 5817 5817 5817 5817 5817 5818 5818 5819 5819 5819 5819 5819 5819 5818 5817 5816 5816 5815 5815 5814 5812 5811 5810 5809 5808 5807 5807 5806
5821 5821 5820 5819 5818 5818 5817 5817 5816 5816 5816 5815 5815 5815 5814 5814 5814 5814 5814 5814 5814 5815 5815 5815 5814 5814 5814 5814 5814 5813 5812 5811 5811 5809 5808 5807 5806 5805 5804 5803 5802 5801 5800
5819 5818 5818 5817 5816 5815 5815 5814 5814 5813 5813 5812 5812 5812 5812 5812 5811 5811 5811 5811 5811 5810 5811 5811 5810 5810 5810 5809 5809 5808 5807 5806 5805 5804 5803 5802 5800 5799 5798 5797 5796 5795 5794
5816 5816 5815 5815 5814 5813 5813 5812 5812 5811 5811 5810 5810 5810 5810 5809 5809 5808 5808 5808 5808 5808 5807 5807 5806 5806 5805 5805 5804 5803 5802 5801 5799 5798 5797 5796 5795 5794 5792 5791 5790 5789 5788
5814 5813 5813 5812 5811 5811 5810 5810 5810 5809 5808 5808 5808 5807 5807 5806 5806 5806 5806 5805 5805 5804 5804 5803 5803 5802 5801 5800 5799 5798 5797 5796 5795 5794 5792 5790 5789 5788 5787 5785 5784 5783 5782
5810 5810 5809 5809 5809 5808 5808 5807 5807 5806 5806 5805 5805 5805 5804 5804 5803 5803 5802 5802 5801 5800 5800 5799 5798 5798 5797 5796 5794 5793 5792 5791 5789 5788 5787 5785 5784 5782 5780 5779 5778 5777 5776
5807 5806 5806 5806 5805 5805 5805 5804 5804 5803 5803 5803 5803 5802 5802 5801 5800 5800 5799 5798 5797 5797 5796 5795 5795 5794 5792 5791 5790 5788 5787 5785 5784 5783 5781 5779 5778 5776 5774 5773 5771 5770 5769
5803 5803 5803 5802 5802 5802 5801 5801 5801 5800 5800 5800 5799 5799 5798 5798 5796 5796 5795 5794 5793 5792 5792 5791 5790 5789 5788 5786 5785 5783 5782 5780 5778 5777 5775 5773 5771 5770 5768 5766 5765 5764 5763
5799 5799 5799 5798 5798 5798 5797 5797 5797 5797 5796 5796 5795 5795 5794 5793 5792 5791 5790 5789 5788 5788 5787 5786 5785 5784 5782 5781 5779 5778 5776 5774 5772 5771 5769 5767 5765 5764 5762 5760 5759 5757 5756
5794 5794 5794 5794 5794 5794 5793 5793 5793 5792 5792 5791 5791 5790 5789 5789 5788 5786 5786 5785 5784 5783 5782 5781 5780 5778 5777 5775 5774 5772 5770 5768 5766 5765 5763 5761 5759 5757 5756 5754 5752 5751 5749
5789 5789 5789 5789 5789 5788 5788 5788 5788 5787 5787 5787 5786 5785 5784 5784 5783 5782 5781 5780 5779 5778 5776 5775 5774 5773 5771 5769 5768 5766 5764 5762 5760 5759 5757 5755 5754 5752 5750 5748 5745 5744 5742